Location: Piotrkow Trybunalski
(51.4000°N, 19.6830°E)
Time: 03:40:18
(UTC+02:00)

CZ-6A DEB - Visible Passes

Search period start: 16 April 2026 00:00
Search period end: 26 April 2026 00:00
Orbit: 723 x 821 km, 98.7° (Epoch: 15 April)

Date Brightness Start Highest point End Pass type
(mag) Time Alt. Az. Time Alt. Az. Time Alt. Az.
16 Apr ? 20:14:21 10° SSW 20:18:45 26° W 20:23:12 10° NW visible
18 Apr ? 20:45:37 10° WSW 20:48:42 15° W 20:51:49 10° NW visible
21 Apr ? 20:39:57 10° SW 20:43:23 17° W 20:46:50 10° NW visible
24 Apr ? 20:34:20 10° SW 20:38:03 19° W 20:41:47 10° NW visible
